Weather History for YPLM - February, 2013

Change the Weather History Date:

Sunday, February 10, 2013

  Actual Average Record
Temperature  
Mean Temperature 88 °F -  
Max Temperature 100 °F 95 °F 114 °F (2015)
Min Temperature 76 °F 73 °F 69 °F (2007)
Cooling Degree Days 23    
Growing Degree Days 38 (Base 50)    
Moisture  
Dew Point 69 °F    
Average Humidity 56    
Maximum Humidity 79    
Minimum Humidity 15    
Precipitation  
Precipitation 0.00 in 0.04 in - ()
Sea Level Pressure  
Sea Level Pressure 29.79 in    
Wind  
Wind Speed 10 mph ()    
Max Wind Speed 26 mph    
Max Gust Speed 41 mph    
Visibility 6.1 miles    
Events      
Averages and records for this station are not official NWS values.
T = Trace of Precipitation, MM = Missing Value Source: Averaged Metar Reports

Daily Weather History Graph

Daily Weather History Graph

Search for Another Location

Airport or City:

Trip Planner

Search our weather history database for the weather conditions in past years. The results will help you decide how hot, cold, wet, or windy it might be!

Date:

Astronomy

Feb. 10, 2013 Rise Set
Actual Time 6:10 AM AWST 7:05 PM AWST
Civil Twilight 5:46 AM AWST 7:28 PM AWST
Nautical Twilight 5:19 AM AWST 7:56 PM AWST
Astronomical Twilight 4:50 AM AWST 8:24 PM AWST
Moon 5:53 AM AWST (2/10) 6:52 PM AWST (2/10)
Length of Visible Light 13h 42m
Length of Day
12h 55m
Waning Crescent, 0% of the Moon is Illuminated
Feb 10
Waning Crescent
Feb 10
New
Feb 18
First Quarter
Feb 26
Full
Mar 5
Last Quarter

Hourly Weather History & Observations

Time (AWST) Temp. Heat Index Dew Point Humidity Pressure Visibility Wind Dir Wind Speed Gust Speed Precip Events Conditions
12:00 AM 82 °F - 75 °F 73% 29.89 in - SSE 19.6 mph - -   Overcast
12:00 AM 82.4 °F 89.5 °F 75.2 °F 79% 29.89 in 6.2 mi SSE 19.6 mph 31.1 mph N/A   Overcast
12:30 AM 82.4 °F 88.2 °F 73.4 °F 74% 29.86 in 6.2 mi South 10.4 mph - N/A   Unknown
12:52 AM 80.6 °F 83.2 °F 68.0 °F 65% 29.86 in 3.7 mi SSE 15.0 mph - N/A   Unknown
1:00 AM 80.6 °F 83.2 °F 68.0 °F 65% 29.86 in 3.1 mi SSE 12.7 mph - N/A   Unknown
1:30 AM 80.6 °F 82.7 °F 66.2 °F 61% 29.83 in 3.1 mi SSW 6.9 mph - N/A   Unknown
1:56 AM 78.8 °F - 66.2 °F 65% 29.80 in 4.3 mi WSW 3.5 mph - N/A   Unknown
2:00 AM 79 °F - 65 °F 55% 29.81 in - WSW 4.6 mph - -  
2:00 AM 78.8 °F - 66.2 °F 65% 29.80 in 4.3 mi WSW 4.6 mph - N/A   Unknown
2:30 AM 80.6 °F 82.7 °F 66.2 °F 61% 29.77 in 5.0 mi West 4.6 mph - N/A   Unknown
3:00 AM 79 °F - 66 °F 56% 29.78 in 5 mi NNW 3.5 mph - -  
3:00 AM 78.8 °F - 66.2 °F 65% 29.77 in 5.0 mi NNW 3.5 mph - N/A   Unknown
3:30 AM 78.8 °F - 66.2 °F 65% 29.74 in 5.6 mi WSW 4.6 mph - N/A   Unknown
4:00 AM 80.6 °F 82.7 °F 66.2 °F 61% 29.74 in 6.2 mi West 8.1 mph - N/A   Unknown
4:30 AM 80.6 °F 82.7 °F 66.2 °F 61% 29.74 in 6.2 mi WSW 4.6 mph - N/A   Unknown
5:00 AM 81 °F - 67 °F 54% 29.76 in - WNW 3.5 mph - -  
5:00 AM 80.6 °F 83.2 °F 68.0 °F 65% 29.74 in 6.2 mi WNW 3.5 mph - N/A   Unknown
5:30 AM 78.8 °F - 68.0 °F 69% 29.77 in 6.2 mi ESE 4.6 mph - N/A   Unknown
6:00 AM 78 °F - 70 °F 70% 29.78 in 7 mi ESE 4.6 mph - -   Haze
6:00 AM 78.8 °F - 69.8 °F 74% 29.77 in - ESE 4.6 mph - N/A   Clear
6:30 AM 77.0 °F - 69.8 °F 78% 29.80 in - SE 2.3 mph - N/A   Clear
7:00 AM 80.6 °F 83.9 °F 69.8 °F 70% 29.80 in - WNW 1.2 mph - N/A   Clear
7:30 AM 84.2 °F 87.3 °F 68.0 °F 58% 29.80 in - West 6.9 mph - N/A   Clear
8:00 AM 86 °F - 68 °F 45% 29.81 in - WNW 5.8 mph - -  
8:00 AM 86.0 °F 89.4 °F 68.0 °F 55% 29.80 in - WNW 5.8 mph - N/A   Clear
8:30 AM 87.8 °F 91.4 °F 68.0 °F 52% 29.80 in - NNW 3.5 mph - N/A   Clear
9:00 AM 89 °F - 67 °F 38% 29.81 in 9 mi North 3.5 mph - -   Haze
9:00 AM 89.6 °F 92.2 °F 66.2 °F 46% 29.80 in - North 3.5 mph - N/A   Clear
9:30 AM 91.4 °F 94.0 °F 66.2 °F 43% 29.80 in - NNE 4.6 mph - N/A   Clear
10:00 AM 93.2 °F 94.9 °F 64.4 °F 38% 29.80 in - North 4.6 mph - N/A   Clear
10:30 AM 96.8 °F 98.0 °F 62.6 °F 32% 29.80 in - WNW 4.6 mph - N/A   Clear
11:00 AM 96 °F - 57 °F 18% 29.81 in - NNE 6.9 mph - -  
11:00 AM 96.8 °F 95.8 °F 57.2 °F 27% 29.80 in - NNE 6.9 mph - N/A   Clear
11:30 AM 96.8 °F 94.4 °F 53.6 °F 23% 29.80 in - ENE 4.6 mph - N/A   Clear
12:00 PM 99 °F - 56 °F 15% 29.79 in 11 mi North 5.8 mph - -   Haze
12:00 PM 98.6 °F 97.2 °F 55.4 °F 24% 29.77 in - North 5.8 mph - N/A   Clear
12:30 PM 98.6 °F 97.6 °F 57.2 °F 25% 29.77 in - NE 8.1 mph - N/A   Clear
1:00 PM 98.6 °F 98.5 °F 59.0 °F 27% 29.77 in 6.2 mi NE 6.9 mph - N/A   Dust Whirls
1:30 PM 96.8 °F 105.1 °F 71.6 °F 44% 29.77 in - SW 15.0 mph - N/A   Clear
2:00 PM 97 °F - 71 °F 33% 29.76 in - West 15.0 mph - -  
2:00 PM 96.8 °F 105.1 °F 71.6 °F 44% 29.74 in - West 15.0 mph - N/A   Clear
2:30 PM 96.8 °F 103.1 °F 69.8 °F 41% 29.74 in - WSW 12.7 mph - N/A   Clear
3:00 PM 96 °F - 71 °F 35% 29.75 in 10 mi WSW 15.0 mph - -   Haze
3:00 PM 96.8 °F 105.1 °F 71.6 °F 44% 29.74 in - WSW 15.0 mph - N/A   Clear
3:30 PM 95.0 °F 103.2 °F 71.6 °F 47% 29.74 in 6.2 mi West 12.7 mph - N/A   Unknown
4:00 PM 95.0 °F 103.2 °F 71.6 °F 47% 29.71 in 6.2 mi West 15.0 mph - N/A   Unknown
4:30 PM 93.2 °F 100.5 °F 71.6 °F 49% 29.71 in 6.2 mi WSW 17.3 mph - N/A   Unknown
5:00 PM 92 °F - 72 °F 44% 29.73 in - WSW 18.4 mph - -  
5:00 PM 91.4 °F 100.1 °F 73.4 °F 55% 29.71 in 6.2 mi WSW 18.4 mph - N/A   Unknown
5:30 PM 89.6 °F 98.2 °F 73.4 °F 59% 29.71 in 6.2 mi WSW 19.6 mph - N/A   Unknown
6:00 PM 89 °F - 73 °F 51% 29.73 in - WSW 19.6 mph - -  
6:00 PM 89.6 °F 98.2 °F 73.4 °F 59% 29.71 in 6.2 mi WSW 19.6 mph - N/A   Unknown
6:30 PM 86.0 °F 93.4 °F 73.4 °F 66% 29.74 in 6.2 mi WSW 18.4 mph - N/A   Unknown
7:00 PM 84.2 °F 90.9 °F 73.4 °F 70% 29.74 in 6.2 mi WSW 17.3 mph - N/A   Unknown
7:30 PM 84.2 °F 90.9 °F 73.4 °F 70% 29.74 in 6.2 mi WSW 17.3 mph - N/A   Unknown
8:00 PM 83 °F - 74 °F 68% 29.78 in - WSW 16.1 mph - -  
8:00 PM 84.2 °F 90.9 °F 73.4 °F 70% 29.77 in 6.2 mi WSW 16.1 mph - N/A   Unknown
8:30 PM 82.4 °F 88.2 °F 73.4 °F 74% 29.77 in 6.2 mi WSW 17.3 mph - N/A   Unknown
9:00 PM 83 °F - 74 °F 67% 29.78 in - WSW 15.0 mph - -  
9:00 PM 82.4 °F 88.2 °F 73.4 °F 74% 29.77 in 6.2 mi WSW 15.0 mph - N/A   Unknown
9:30 PM 82.4 °F 88.2 °F 73.4 °F 74% 29.80 in 6.2 mi SW 12.7 mph - N/A   Unknown
10:00 PM 82.4 °F 88.2 °F 73.4 °F 74% 29.83 in 6.2 mi SW 10.4 mph - N/A   Unknown
10:30 PM 82.4 °F 88.2 °F 73.4 °F 74% 29.86 in 6.2 mi ESE 5.8 mph - N/A   Unknown
11:00 PM 83 °F - 74 °F 68% 29.90 in - ESE 8.1 mph - -  
11:00 PM 82.4 °F 88.2 °F 73.4 °F 74% 29.89 in 6.2 mi ESE 8.1 mph - N/A   Overcast
11:17 PM 82.4 °F 86.3 °F 69.8 °F 66% 29.92 in 6.2 mi ENE 24.2 mph - N/A   Overcast
11:19 PM 78.8 °F - 64.4 °F 61% 29.92 in 6.2 mi East 26.5 mph 41.4 mph N/A   Overcast
11:33 PM 78.8 °F - 71.6 °F 78% 29.92 in 6.2 mi ENE 23.0 mph 34.5 mph N/A   Overcast